Dewpoint
56 56 56 56 57 57 57 57 57 57 55 53 53 54 55 55 56 55 55 56 56 56 56 57 57 57 45 26 33 36 53 48 44 45 41 37 33 30 24 26 29 24 24 28 31 30 30
57 57 57 57 57 57 58 58 58 58 57 55 53 54 55 55 55 55 55 55 55 54 55 56 56 55 29 21 32 37 40 41 42 42 41 40 36 36 30 29 28 28 29 29 30 31 28
57 57 57 57 57 57 58 57 57 58 57 57 54 53 54 55 55 55 55 54 54 54 55 55 55 38 31 31 36 37 39 40 41 41 40 41 40 34 34 31 31 28 26 28 29 28 26
56 57 57 57 57 57 58 58 58 58 57 57 55 53 54 54 55 55 55 54 54 55 55 54 55 32 29 38 36 38 39 39 40 41 40 42 35 31 30 30 25 22 21 20 25 23 26
56 56 57 57 58 58 58 58 58 58 57 57 56 53 54 54 55 56 56 55 53 53 54 53 35 24 24 41 37 39 38 38 40 38 38 35 33 30 28 23 23 18 13 13 15 26 24
57 57 57 57 57 58 58 57 58 58 57 57 56 54 53 55 55 55 56 55 52 49 43 35 34 23 27 32 39 40 39 40 38 35 31 33 32 27 26 23 17 17 17 16 14 21 23
57 57 57 57 58 58 57 57 57 57 57 57 56 55 54 55 55 54 49 44 33 29 36 31 32 30 32 37 41 34 40 36 34 29 26 29 28 25 25 24 24 23 20 18 18 23 21
58 58 58 58 58 58 57 57 57 58 57 57 56 55 53 54 55 52 47 43 44 40 27 34 35 33 35 39 31 32 38 30 29 23 27 28 27 28 29 27 25 22 20 17 18 23 23
57 58 59 58 58 58 57 57 58 58 57 57 56 55 53 54 53 47 46 46 48 47 26 27 34 28 30 36 33 32 36 34 29 26 27 25 26 29 27 26 22 20 18 19 20 25 23
57 57 58 58 58 58 58 58 58 57 57 56 56 55 53 53 40 42 43 47 48 47 25 23 26 25 29 34 26 36 36 35 28 25 27 26 29 28 27 26 24 15 27 27 25 23 14
57 57 58 58 58 58 58 57 57 57 57 56 55 55 53 50 38 37 42 46 47 44 19 22 26 31 29 24 24 24 36 30 27 27 23 21 25 27 28 27 27 17 28 26 25 23 23
57 57 58 58 57 57 57 57 57 57 56 56 55 54 52 44 41 41 45 47 45 31 16 24 28 25 24 24 26 25 31 31 32 28 25 25 32 31 29 30 29 28 26 26 25 23 19
58 57 57 57 57 57 57 56 56 56 56 55 54 53 47 43 28 41 46 43 32 24 22 22 24 26 25 21 21 23 28 27 25 20 21 24 28 31 30 24 26 24 20 18 15 17 18
57 57 57 57 57 57 56 56 56 56 56 55 53 49 45 42 42 45 42 28 21 24 23 28 26 26 20 22 21 23 23 25 27 23 23 22 21 25 27 24 22 23 19 15 8 11 16
57 57 57 57 57 57 57 56 56 56 55 54 50 40 35 42 41 45 31 24 24 24 27 27 26 19 19 23 21 21 22 24 27 25 18 20 20 25 27 28 24 21 20 24 19 17 16
57 57 57 57 57 56 56 56 56 56 54 52 42 39 36 37 44 38 29 25 24 29 29 29 20 20 18 21 20 19 18 25 26 28 26 21 18 22 27 28 28 25 25 17 21 15 16
57 57 56 56 56 56 55 56 56 56 53 51 44 39 42 41 40 32 26 26 28 29 30 25 24 22 22 21 21 19 19 25 27 27 27 25 22 21 22 23 21 26 23 22 20 22 21
57 57 57 56 56 55 55 55 55 54 50 46 43 37 44 40 31 28 24 27 33 28 30 28 27 26 23 22 21 19 19 21 28 28 25 28 23 21 20 21 23 24 22 20 20 19 25
57 57 57 57 56 56 55 55 55 53 47 42 39 37 42 38 31 25 27 28 30 28 27 26 26 27 26 23 23 21 22 28 29 28 24 23 19 17 19 22 20 19 21 22 24 26 22
57 57 57 57 56 56 55 55 55 54 48 42 39 38 38 34 31 28 23 24 27 31 28 28 26 27 25 23 23 22 22 27 28 28 35 30 23 18 18 19 20 19 19 19 17 20 19
57 57 57 57 56 56 56 55 54 54 48 47 40 34 32 34 31 27 28 26 25 26 29 28 27 26 24 24 23 22 23 24 28 33 29 25 21 22 22 21 19 18 18 17 16 16 16
57 57 57 57 57 56 56 55 55 54 49 44 41 38 29 26 26 30 31 30 29 25 27 26 26 27 26 24 27 29 24 24 24 24 22 23 20 19 17 17 18 17 17 17 17 16 14
57 57 56 56 57 56 56 55 54 54 50 44 37 30 41 38 29 31 34 33 29 26 29 29 27 26 25 27 25 25 25 25 23 20 19 18 20 17 14 17 17 14 15 20 22 24 23
55 56 57 56 56 56 56 55 54 54 51 47 41 37 43 40 37 33 35 28 26 25 27 28 29 26 29 31 30 27 26 25 23 21 19 17 18 19 14 16 10 17 18 20 19 20 20
52 53 54 55 56 56 56 55 55 54 52 48 43 46 44 40 39 36 31 33 31 32 33 29 30 31 31 32 27 25 23 16 18 20 19 19 17 16 14 13 15 18 15 14 15 18 17
52 52 52 53 53 55 55 55 55 55 53 49 45 49 47 42 38 40 35 34 36 34 33 31 32 33 33 28 21 24 24 21 21 18 20 20 20 16 19 15 12 14 14 15 16 13 16
50 51 51 51 51 52 53 54 55 55 54 49 47 48 47 42 41 40 38 37 37 35 35 31 30 30 28 23 22 21 21 20 19 18 16 18 17 17 16 18 18 15 15 15 13 14 17
50 50 50 51 51 52 52 52 53 54 53 49 43 46 47 43 39 39 39 36 36 37 36 33 31 26 24 22 22 22 21 20 15 16 17 17 17 15 18 17 11 16 15 15 16 17 16
48 50 50 49 51 51 52 52 52 53 50 48 42 45 44 42 38 40 40 39 36 35 36 33 32 26 27 26 24 24 23 20 18 19 18 16 19 20 19 17 16 17 17 17 17 16 16
Lifted_Index
12 12 12 12 12 12 11 11 11 12 13 14 14 14 14 14 14 14 13 13 12 12 12 12 12 13 12 12 12 14 14 13 13 12 12 11 10 10 9 9 9 9 9 9 10 10 10
12 12 12 12 12 11 11 11 11 11 12 13 14 14 14 14 14 14 13 13 13 13 13 13 13 13 12 12 13 14 14 13 13 13 12 12 11 10 9 9 9 9 9 9 9 9 9
12 12 12 12 12 11 11 11 11 11 11 12 14 14 15 14 14 14 14 14 14 14 14 14 14 14 12 12 13 14 14 13 13 13 12 12 12 11 10 10 9 9 8 8 8 9 9
11 12 12 12 11 11 11 10 10 11 11 11 12 14 15 15 14 14 14 14 15 15 15 14 14 13 12 13 14 14 14 13 13 13 13 12 12 11 10 10 9 8 7 6 7 8 8
11 11 11 11 11 11 11 10 10 10 11 11 11 13 14 15 14 14 14 15 15 15 15 15 14 13 12 13 14 14 14 13 13 13 12 12 11 11 10 8 7 6 5 5 6 8 8
11 11 11 11 11 11 10 10 10 10 10 11 11 13 14 15 15 14 15 15 15 15 14 14 14 13 12 13 13 14 14 13 12 12 11 10 10 9 8 7 6 5 5 5 6 7 8
10 10 10 10 10 10 10 10 10 10 10 11 11 13 15 15 15 15 15 14 14 14 13 13 13 13 13 13 13 13 13 12 11 10 9 9 8 8 8 8 7 6 6 5 6 7 7
10 10 10 10 10 10 10 10 10 10 10 10 12 14 15 15 15 15 14 14 14 13 12 12 13 13 13 13 12 12 12 11 9 8 8 7 7 8 8 8 7 7 6 6 6 7 7
10 10 10 10 10 10 10 10 10 10 10 10 11 13 15 15 15 14 13 14 14 13 11 11 12 12 13 12 11 11 11 10 8 7 7 7 8 8 8 7 7 6 6 6 6 5 5
10 10 10 10 10 10 10 10 10 10 10 10 11 13 15 14 14 13 13 14 15 12 9 9 11 12 12 12 11 12 12 10 8 8 7 7 8 8 7 7 6 6 7 6 6 5 4
10 10 10 10 10 10 11 10 10 10 9 9 10 13 14 14 13 13 14 15 14 10 6 7 10 12 12 11 11 11 12 11 9 8 8 7 8 7 7 6 6 6 7 6 6 5 4
9 10 10 10 10 11 11 11 10 9 9 9 10 12 14 14 13 13 14 14 11 7 5 7 9 10 10 10 10 10 10 10 9 8 7 7 7 7 6 6 6 6 6 5 4 4 3
9 10 10 10 11 11 11 11 10 10 9 9 10 12 13 13 12 13 13 10 7 5 6 7 8 8 8 8 8 8 8 8 8 7 7 6 6 7 6 6 6 5 4 3 2 2 1
9 10 10 10 10 11 11 11 10 10 9 9 9 10 11 12 12 12 10 7 5 5 7 7 8 8 7 8 8 7 7 7 7 7 7 6 5 6 6 6 5 5 4 3 2 1 1
9 9 10 10 10 10 11 11 11 10 9 9 9 9 10 11 12 10 8 5 5 6 7 7 7 7 7 7 7 7 7 7 8 8 8 6 6 6 6 6 5 5 5 5 3 2 1
9 9 10 10 10 10 11 11 11 10 9 9 8 8 9 10 11 9 6 5 5 7 8 7 7 6 7 7 7 7 7 7 8 8 9 8 6 6 6 6 5 5 5 5 4 2 1
9 9 9 10 10 10 11 11 11 10 10 9 8 7 8 9 9 7 5 5 6 7 8 7 7 7 7 7 7 7 7 8 8 9 9 8 7 6 6 6 5 5 5 5 4 3 2
9 9 9 9 9 10 10 11 11 11 10 8 7 7 8 8 7 6 5 6 7 7 8 7 7 7 7 7 7 7 7 8 8 8 8 8 7 6 6 6 6 5 5 5 4 3 2
8 8 8 9 9 9 10 10 11 11 10 8 7 7 7 7 6 5 6 6 7 7 7 7 7 7 7 7 7 7 7 8 9 8 8 8 6 5 5 6 6 5 5 5 4 3 2
8 8 8 8 8 8 9 10 10 11 10 8 7 7 7 7 6 6 6 6 6 6 7 7 7 7 7 7 7 7 7 8 8 8 8 8 7 5 5 5 6 5 5 4 4 3 2
7 7 7 8 8 8 8 9 10 10 9 8 8 7 7 6 6 6 6 6 6 6 6 6 7 7 7 6 6 6 7 7 7 7 8 7 6 6 5 6 6 5 5 4 4 3 3
7 7 7 7 8 8 8 8 9 9 9 9 8 7 7 6 6 6 6 6 6 6 6 6 6 6 6 6 6 6 7 7 6 6 6 6 6 6 6 6 6 6 5 5 4 4 4
6 7 7 7 7 7 7 7 8 9 9 9 8 8 7 6 6 6 5 5 5 5 6 6 6 6 6 7 7 7 7 6 6 5 5 6 6 6 5 6 6 5 5 5 5 5 5
6 6 7 7 7 7 7 7 7 8 8 8 8 8 7 6 6 5 5 5 5 5 5 6 6 7 7 7 7 7 6 6 5 5 5 6 6 6 5 5 5 5 6 6 6 6 6
6 6 6 6 6 6 6 6 6 7 7 7 8 7 7 6 5 5 5 4 4 5 5 6 7 8 8 8 7 6 5 5 5 5 6 6 6 6 5 4 5 6 6 6 6 6 6
7 7 6 6 6 6 6 6 6 6 6 6 7 7 6 6 5 5 4 4 5 5 5 6 7 8 8 7 6 5 5 5 5 6 6 6 6 6 6 5 5 6 7 7 6 6 7
8 8 7 7 7 6 6 6 6 5 5 6 6 6 6 5 5 5 5 5 5 6 6 7 7 7 7 6 6 5 5 5 5 6 6 6 6 6 6 5 5 7 8 8 6 6 7
10 10 9 8 8 7 7 6 6 6 5 6 6 6 6 5 6 6 6 6 6 6 6 6 7 6 6 6 6 6 6 7 6 6 6 7 6 6 6 6 6 7 8 7 7 8 8
12 11 10 9 8 8 8 7 7 6 6 6 6 6 6 6 6 7 7 7 7 7 6 6 6 6 6 6 7 7 7 7 7 7 7 7 7 7 6 6 7 8 8 8 8 9 9